time,valid candidates,not considered,total,median age,backlog
1698123717000,0,112,112,75,10115
1698125143000,0,112,112,75,10115
1698126277000,0,112,112,75,10115
1698128150000,0,112,112,75,10120
1698129774000,0,112,112,75,10123
1698131021000,0,112,112,75,10123
1698132268000,0,112,112,75,10128
1698134282000,0,112,112,75,10131
1698136289000,0,112,112,75,10132
1698138981000,0,112,112,75,10139
1698141958000,0,112,112,75,10142
1698144232000,0,112,112,75,10144
1698146097000,0,112,112,75,10149
1698148729000,0,112,112,75,10151
1698150853000,0,112,112,75,10157
1698153437000,0,112,112,76,10158
1698155836000,0,112,112,76,10161
1698157817000,0,112,112,76,10164
1698160296000,0,113,113,75,10165
1698161931000,0,113,113,75,10165
1698195608000,0,113,113,76,10204
1698197868000,0,115,115,75,10211
1698203175000,0,117,117,75,10215
1698204724000,0,117,117,75,10216
1698206875000,0,117,117,75,10216
1698208286000,0,117,117,75,10216
1698210060000,0,117,117,75,10216
1698211798000,0,117,117,75,10216
1698213272000,0,117,117,75,10217
1698214485000,0,117,117,75,10220
1698216905000,0,117,117,75,10224
1698219598000,0,117,117,75,10231
1698224003000,0,117,117,75,10233
1698228312000,0,117,117,75,10243
1698232992000,0,117,117,75,10250
1698235315000,0,117,117,75,10251
1698238140000,0,118,118,75,10257
1698241386000,0,118,118,75,10261
1698266023000,0,118,118,75,10264
1698271110000,21,99,120,76,10292
1698276253000,21,99,120,76,10293
1698279657000,0,99,99,79,10034
1698283417000,1,118,119,75,10043
1698287549000,5,113,118,75,10051
1698290641000,4,113,117,76,10054
1698293644000,2,112,114,76,10055
1698296851000,5,110,115,76,10055
1698300308000,5,108,113,76,10042
1698303216000,6,107,113,76,10048
1698306737000,5,105,110,77,10056
1698309861000,5,105,110,77,10059
1698314097000,2,132,134,71,10045
1698317333000,1,138,139,67,10048
1698320614000,3,137,140,67,10052
1698323345000,3,137,140,67,10054
1698326730000,3,137,140,67,10059
1698330428000,3,419,422,0,10066
1698333563000,4,418,422,0,10067
1698337052000,29,400,429,0,10067
1698339686000,30,399,429,0,10067
1698344339000,60,2496,2556,0,8935
1698347340000,61,2495,2556,0,8941
1698356012000,78,4368,4446,0,8771
1698365192000,178,4248,4426,0,8775
1698374269000,363,4019,4382,0,8787
1698394763000,490,3766,4256,0,8797
1698406894000,300,3774,4074,0,8773
1698416868000,57,3778,3835,0,8787
1698430540000,57,3739,3796,0,8798
1698442653000,161,3689,3850,1,8806
1698454999000,285,3572,3857,1,8813
1698467222000,203,3506,3709,1,8831
1698477050000,235,3372,3607,1,8741
1698488655000,281,3261,3542,1,8754
1698499064000,282,3121,3403,1,8762
1698508810000,260,3015,3275,1,8778
1698518357000,273,2852,3125,1,8779
1698527081000,344,2693,3037,1,8788
1698535435000,301,2567,2868,2,8794
1698544228000,223,2489,2712,2,8797
1698555747000,71,2413,2484,2,8817
1698563736000,118,2368,2486,2,8818
1698572626000,129,2319,2448,2,8829
1698581431000,201,2222,2423,2,8839
1698589219000,174,2194,2368,2,8729
1698597416000,81,2172,2253,2,8731
1698604315000,83,2115,2198,2,8731
1698612343000,124,2072,2196,2,8740
1698620648000,125,2027,2152,3,8745
1698627922000,108,1947,2055,3,8748
1698634826000,205,1887,2092,3,8771
1698643055000,127,1768,1895,3,8775
1698654555000,170,1605,1775,3,8782
1698666308000,188,1432,1620,3,8803
1698677108000,357,1267,1624,3,8816
1698686805000,349,1129,1478,3,8837
1698695092000,272,1042,1314,3,9068
1698704907000,186,977,1163,4,9465
1698732170000,41,973,1014,4,9317
1698740981000,71,942,1013,4,9326
1698749439000,40,935,975,4,9323
1698758490000,15,955,970,4,9339
1698766690000,32,968,1000,4,9351
1698773676000,48,948,996,4,9358
1698781134000,39,947,986,4,9666
1698790455000,40,1161,1201,5,10000
1698802130000,43,1127,1170,5,9990
1698809638000,150,1053,1203,5,10018
1698817081000,147,1017,1164,5,10023
1698824403000,46,1010,1056,5,10023
1698831618000,15,1032,1047,5,10019
1698838107000,25,1052,1077,5,10045
1698844388000,24,1047,1071,5,10051
1698850286000,23,1034,1057,5,10066
1698856265000,24,1026,1050,5,10075
1698862264000,15,1021,1036,5,10074
1698868179000,15,1024,1039,5,10390
1698874070000,13,1022,1035,6,10720
1698879727000,12,1026,1038,6,10717
1698885192000,11,1017,1028,6,10721
1698891046000,28,1079,1107,6,10537
1698896491000,31,1074,1105,6,10543
1698901929000,13,1062,1075,6,10546
1698907808000,8,1067,1075,6,10548
1698914236000,11,1094,1105,6,10543
1698921158000,19,1113,1132,6,10456
1698927219000,12,1217,1229,6,10445
1698933863000,13,1397,1410,5,10453
1698940691000,18,1395,1413,5,10467
1698947708000,18,1397,1415,5,10470
1698955098000,20,1380,1400,5,10765
1698962009000,25,1432,1457,4,11064
1698968678000,12,1428,1440,5,11079
1698975524000,9,1453,1462,4,11115
1698983281000,10,1502,1512,4,11138
1698990809000,12,1536,1548,3,11135
1698998083000,8,1530,1538,3,11137
1699005523000,14,1544,1558,3,11150
1699012952000,13,1552,1565,3,11182
1699020366000,4,1556,1560,3,11197
1699027869000,17,1557,1574,3,11206
1699035147000,18,1572,1590,3,11220
1699042100000,5,1604,1609,3,11338
1699048740000,14,1612,1626,3,11642
1699055267000,23,1592,1615,3,11660
1699061920000,30,1560,1590,3,11689
1699068624000,28,1586,1614,3,11676
1699074960000,14,1605,1619,3,11599
1699081245000,7,1601,1608,3,11601
1699087635000,3,1610,1613,3,11607
1699211684000,63,2070,2133,3,12606
1699213321000,65,2087,2152,3,12620
1699214904000,16,2081,2097,3,12880
1699216402000,3,2033,2036,3,12864
1699217763000,3,2106,2109,3,12865
1699219254000,3,2035,2038,3,12866
1699220666000,3,2080,2083,3,12867
1699221999000,3,2097,2100,3,12868
1699223390000,3,2032,2035,3,12874
1699224794000,5,1996,2001,3,12874
1699226210000,5,2017,2022,3,12875
1699227505000,5,2028,2033,3,12877
1699228899000,5,2060,2065,3,12883
1699230627000,3,2067,2070,3,12881
1699232212000,17,2073,2090,3,12888
1699233734000,19,2115,2134,3,12947
1699235161000,19,2061,2080,3,12951
1699236668000,6,2120,2126,3,12971
1699238195000,4,2089,2093,3,12971
1699239559000,4,2020,2024,3,12971
1699241096000,3,2016,2019,3,12978
1699242519000,3,2115,2118,3,12978
1699244015000,4,2044,2048,3,12978
1699245521000,4,2105,2109,3,12978
1699247061000,3,2009,2012,3,12978
1699248541000,3,2052,2055,3,12980
1699249960000,3,2117,2120,3,12981
1699251403000,3,2025,2028,3,12983
1699253028000,3,2074,2077,3,12985
1699255131000,4,2018,2022,3,12986
1699256695000,4,2015,2019,3,13012
1699258416000,4,2007,2011,3,13034
1699260234000,3,2026,2029,3,13028
1699261936000,3,2129,2132,3,13070
1699263610000,3,2025,2028,3,13054
1699265188000,3,2086,2089,3,13055
1699267432000,4,2054,2058,3,13080
1699269174000,7,2097,2104,3,13173
1699270819000,6,2112,2118,3,13185
1699272521000,6,2035,2041,3,13186
1699274359000,5,2062,2067,3,13190
1699275950000,5,2064,2069,4,13365
1699278016000,3,2048,2051,4,13367
1699279546000,4,2034,2038,4,13377
1699281066000,5,2037,2042,4,13377
1699282567000,4,2107,2111,4,13378
1699284090000,4,2033,2037,4,13381
1699285520000,5,2030,2035,4,13381
1699286903000,4,2109,2113,4,13387
1699288432000,3,2093,2096,4,13386
1699290014000,3,2042,2045,4,13386
1699291658000,3,2071,2074,4,13386
1699293162000,3,2105,2108,4,13642
1699294803000,3,2061,2064,4,13646
1699296344000,3,2066,2069,4,13660
1699297897000,3,2086,2089,4,13662
1699299375000,3,2092,2095,4,13673
1699300752000,3,2054,2057,4,13941
1699302136000,3,2056,2059,4,14010
1699303443000,3,2108,2111,4,14069
1699304858000,3,2067,2070,4,14059
1699306274000,3,2082,2085,4,14059
1699307690000,3,2153,2156,4,14053
1699309067000,3,2127,2130,4,14060
1699310421000,3,2109,2112,4,14047
1699311786000,3,2101,2104,4,14047
1699313110000,3,2117,2120,4,14049
1699314361000,3,2104,2107,4,14050
1699315679000,3,2136,2139,4,14058
1699317151000,3,2136,2139,4,14092
1699318618000,3,2128,2131,4,14099
1699320051000,3,2137,2140,4,14157
1699321457000,3,2116,2119,4,14162
1699322843000,3,2198,2201,4,14232
1699324180000,3,2100,2103,4,14233
1699325579000,3,2098,2101,4,14233
1699326970000,3,2169,2172,4,14239
1699328300000,3,2149,2152,4,14240
1699329767000,3,2114,2117,4,14240
1699331269000,3,2108,2111,4,14271
1699332760000,3,2119,2122,4,14271
1699334429000,3,2162,2165,4,14273
1699335947000,3,2125,2128,4,14273
1699337517000,3,2102,2105,4,14275
1699339776000,3,2208,2211,4,14278
1699342536000,13,2238,2251,4,14237
1699344326000,29,2194,2223,4,14242
1699346027000,20,2158,2178,4,14275
1699347662000,20,2196,2216,4,14285
1699349319000,3,2262,2265,4,14307
1699350838000,3,2166,2169,4,14309
1699352416000,3,2174,2177,4,14327
1699353888000,3,2213,2216,4,14355
1699355653000,9,2266,2275,4,14436
1699357260000,12,2195,2207,4,14446
1699358805000,12,2222,2234,4,14447
1699362263000,24,2237,2261,5,14621
1699363689000,24,2186,2210,5,14625
1699365120000,24,2169,2193,5,14627
1699366849000,10,2267,2277,4,14543
1699368338000,10,2221,2231,4,14562
1699369932000,12,2263,2275,4,14449
1699371353000,12,2234,2246,4,14450
1699372904000,12,2238,2250,4,14453
1699374451000,3,2254,2257,4,14408
1699375886000,3,2294,2297,4,14409
1699377317000,3,2321,2324,4,14409
1699378954000,4,2289,2293,4,14648
1699380394000,5,2257,2262,4,14650
1699381889000,14,2319,2333,4,14645
1699383299000,15,2271,2286,4,14700
1699384756000,13,2361,2374,4,14698
1699386155000,3,2257,2260,4,14685
1699387466000,3,2278,2281,4,14942
1699388777000,3,2275,2278,4,15008
1699390246000,3,2309,2312,5,15070
1699391599000,3,2330,2333,5,15071
1699392945000,3,2368,2371,4,15067
1699394242000,6,2264,2270,4,15069
1699395532000,6,2286,2292,4,15074
1699396795000,6,2277,2283,4,15074
1699397974000,6,2293,2299,4,15074
1699399145000,6,2292,2298,4,15075
1699400402000,3,2281,2284,5,15074
1699401603000,4,2260,2264,5,15076
1699403014000,5,2366,2371,5,15113
1699404329000,8,2277,2285,5,15116
1699405698000,8,2397,2405,4,15177
1699407019000,4,2340,2344,4,15179
1699408288000,4,2355,2359,4,15182
1699409584000,4,2429,2433,5,15270
1699410872000,5,2405,2410,5,15270
1699412215000,4,2366,2370,5,15270
1699413516000,4,2339,2343,5,15276
1699414835000,22,2394,2416,5,15267
1699416165000,23,2349,2372,5,15267
1699417538000,23,2390,2413,5,15267
1699418896000,7,2323,2330,5,15297
1699420239000,7,2316,2323,5,15297
1699421594000,8,2410,2418,5,15299
1699422985000,5,2313,2318,5,15298
1699424453000,6,2375,2381,5,15301
1699426012000,12,2449,2461,5,15217
1699427395000,12,2400,2412,5,15217
1699428846000,4,2350,2354,5,15232
1699430272000,4,2359,2363,5,15236
1699432201000,5,2396,2401,5,15260
1699433592000,5,2361,2366,5,15260
1699435074000,5,2452,2457,5,15307
1699436783000,8,2418,2426,5,15282
1699438287000,9,2467,2476,5,15297
1699440515000,14,2611,2625,4,15293
1699442150000,8,2767,2775,2,15340
1699443683000,8,2849,2857,2,15345
1699445258000,7,2761,2768,2,15340
1699447506000,10,2777,2787,2,15520
1699449796000,6,2825,2831,2,15509
1699451488000,7,2827,2834,2,15512
1699453190000,7,2870,2877,2,15493
1699454777000,7,2830,2837,2,15512
1699456456000,7,2829,2836,2,15501
1699458036000,7,2871,2878,2,15502
1699459528000,7,2901,2908,2,15508
1699461258000,5,2913,2918,2,15509
1699462846000,5,2882,2887,2,15506
1699464403000,5,2829,2834,2,15506
1699466115000,4,2826,2830,2,15734
1699467757000,5,2846,2851,2,15739
1699470269000,17,2836,2853,3,15777
1699471727000,18,2821,2839,3,15789
1699473399000,16,2874,2890,3,15787
1699475027000,3,2871,2874,3,16063
1699476774000,4,2809,2813,3,16122
1699478375000,4,2832,2836,3,16123
1699479899000,6,2848,2854,3,16114
1699481427000,11,2839,2850,3,16115
1699482907000,20,2792,2812,3,16120
1699484456000,20,2811,2831,3,16120
1699485937000,4,2776,2780,3,15987
1699487358000,5,2860,2865,3,15988
1699489016000,7,2833,2840,3,16020
1699490575000,5,2835,2840,3,16014
1699492032000,6,2772,2778,3,16075
1699493525000,7,2827,2834,3,16077
1699495077000,6,2779,2785,3,16083
1699496645000,5,2850,2855,3,16140
1699498116000,5,2793,2798,3,16140
1699499681000,5,2797,2802,3,16135
1699501177000,4,2768,2772,3,16131
1699502623000,4,2799,2803,3,16131
1699504817000,3,2829,2832,3,16150
1699506383000,3,2770,2773,3,16150
1699508077000,3,2843,2846,3,16152
1699509877000,4,2819,2823,3,16115
1699511613000,4,2817,2821,3,16118
1699513371000,7,2811,2818,3,16119
1699515113000,8,2833,2841,3,16142
1699516886000,9,2836,2845,3,16146
1699518589000,10,2861,2871,3,16177
1699520230000,10,2840,2850,3,16177
1699522090000,6,2835,2841,3,16220
1699523892000,6,2794,2800,3,16219
1699525521000,6,2906,2912,3,16230
1699527143000,5,2815,2820,3,16258
1699528804000,11,2799,2810,3,16346
1699530338000,15,2781,2796,3,16348
1699531987000,17,2861,2878,3,16348
1699533744000,10,2821,2831,3,16354
1699535453000,12,2792,2804,3,16526
1699537262000,15,3058,3073,3,16477
1699538858000,15,3037,3052,3,16487
1699540612000,49,2983,3032,3,16474
1699543098000,49,2978,3027,3,16494
1699545322000,70,3028,3098,3,16484
1699546923000,72,2943,3015,3,16490
1699548621000,56,2908,2964,3,16487
1699550288000,26,2928,2954,3,16487
1699551930000,8,2952,2960,3,16703
1699553536000,8,2992,3000,3,16706
1699555217000,8,2966,2974,3,16701
1699556867000,8,2955,2963,4,17339
1699558528000,11,2933,2944,4,17350
1699560151000,18,2906,2924,4,17583
1699561700000,18,2899,2917,4,17639
1699563298000,18,2874,2892,4,17695
1699565459000,14,2885,2899,4,17696
1699566927000,14,2856,2870,4,17697
1699568721000,11,2872,2883,4,17703
1699570169000,11,2867,2878,4,17703
1699571693000,7,2925,2932,4,17703
1699573201000,9,2873,2882,4,17705
1699574790000,9,2844,2853,4,17712
1699577027000,6,2945,2951,4,17751
1699578759000,5,2838,2843,4,17812
1699580930000,5,2832,2837,4,17817
1699582640000,5,2919,2924,4,17899
1699584251000,6,2909,2915,4,17899
1699585869000,6,2876,2882,4,17899
1699587364000,6,2916,2922,4,17905
1699588841000,4,2882,2886,4,17905
1699590338000,4,2843,2847,4,17905
1699591751000,4,2830,2834,4,17934
1699593345000,4,2867,2871,4,17934
1699594893000,5,2822,2827,4,17936
1699596605000,5,2831,2836,4,17938
1699598903000,7,2890,2897,4,17912
1699600661000,16,2864,2880,4,17913
1699602365000,14,2934,2948,4,17931
1699604061000,14,2909,2923,4,17949
1699605753000,15,2895,2910,4,17965
1699608031000,6,2883,2889,4,18030
1699609686000,8,2908,2916,4,18040
1699611646000,11,2884,2895,4,18037
1699613473000,8,2868,2876,4,18041
1699615054000,8,2859,2867,4,18133
1699617123000,8,2860,2868,4,18135
1699618989000,10,2879,2889,4,18109
1699620757000,15,2877,2892,4,18283
1699622477000,9,2876,2885,4,18289
1699624053000,9,2891,2900,4,18293
1699625726000,4,2843,2847,4,18303
1699627393000,4,2950,2954,4,18322
1699628967000,4,2875,2879,4,18324
1699630674000,4,2862,2866,4,18325
1699632374000,4,2854,2858,4,18330
1699634003000,4,2850,2854,4,18330
1699635513000,4,2859,2863,4,18331
1699637289000,4,2850,2854,4,18343
1699638805000,4,2868,2872,4,18565
1699640926000,5,2876,2881,4,18572
1699643233000,6,2869,2875,5,19211
1699644930000,6,2855,2861,5,19222
1699646636000,6,2931,2937,5,19452
1699648246000,6,2862,2868,5,19560
1699650286000,6,2923,2929,5,19564
1699651906000,5,2866,2871,5,19574
1699653576000,4,2950,2954,5,19615
1699655124000,4,2878,2882,5,19620
1699656605000,4,2904,2908,5,19636
1699658009000,4,2911,2915,5,19636
1699659527000,4,2895,2899,5,19638
1699661124000,8,2987,2995,5,19578
1699662680000,8,2962,2970,5,19617
1699664343000,14,2889,2903,5,19624
1699665836000,14,2939,2953,5,19681
1699667452000,11,2936,2947,5,19685
1699669063000,15,2914,2929,5,19767
1699670685000,8,2965,2973,5,19767
1699672222000,5,2965,2970,5,19767
1699673705000,5,2901,2906,5,19772
1699675111000,5,2886,2891,5,19772
1699676794000,4,2959,2963,5,19772
1699678368000,4,2879,2883,5,19800
1699679923000,5,2910,2915,5,19802
1699681520000,5,2893,2898,5,19802
1699683090000,5,2908,2913,5,19804
1699684837000,5,2942,2947,5,19795
1699686599000,5,2929,2934,5,19795
1699688279000,5,2981,2986,5,19874
1699689887000,5,2911,2916,5,19871
1699691585000,6,2916,2922,5,19820
1699693120000,6,2894,2900,5,19846
1699694790000,6,2930,2936,5,19830
1699696306000,6,2880,2886,5,19844
1699698003000,6,2893,2899,5,19856
1699699564000,7,2886,2893,5,19884
1699701071000,7,2951,2958,5,19967
1699702643000,7,2936,2943,5,19987
1699704213000,6,2943,2949,5,19964
1699706552000,7,2924,2931,5,19972
1699708053000,7,2902,2909,5,20153
1699709661000,6,2900,2906,5,20159
1699711146000,7,2985,2992,5,20166
1699712711000,7,2928,2935,5,20170
1699714209000,4,2950,2954,5,20247
1699715631000,5,2908,2913,5,20249
1699717130000,5,2899,2904,5,20252
1699718521000,5,3014,3019,5,20259
1699720115000,4,2959,2963,5,20260
1699721651000,4,2895,2899,5,20261
1699723190000,4,2910,2914,5,20273
1699724681000,4,2900,2904,5,20493
1699726257000,4,2911,2915,5,20496
1699727826000,6,3008,3014,5,20519
1699729402000,6,2957,2963,6,21104
1699730988000,10,2952,2962,6,21115
1699732512000,9,2909,2918,6,21118
1699734148000,5,2931,2936,6,21397
1699735695000,4,2905,2909,6,21453
1699737293000,5,3001,3006,6,21453
1699738802000,5,2984,2989,6,21461
1699740285000,5,2903,2908,6,21499
1699741912000,4,2919,2923,6,21504
1699743487000,4,2994,2998,6,21516
1699745031000,4,2957,2961,6,21518
1699746471000,5,2988,2993,6,21499
1699748023000,5,2941,2946,6,21506
1699749693000,9,3002,3011,6,21544
1699751274000,9,2982,2991,6,21604
1699752932000,8,2991,2999,6,21662
1699754546000,4,3003,3007,6,21683
1699756156000,4,2968,2972,6,21747
1699757645000,5,3037,3042,6,21747
1699759193000,5,2938,2943,6,21752
1699760678000,5,3006,3011,6,21752
1699762122000,5,2919,2924,6,21752
1699763783000,4,2994,2998,6,21780
1699765324000,4,2953,2957,6,21780
1699766925000,4,3012,3016,6,21782
1699768496000,4,2995,2999,6,21769
1699770089000,13,2997,3010,6,21772
1699771527000,13,2992,3005,6,21816
1699773017000,13,2956,2969,6,21816
1699774690000,5,2933,2938,6,21893
1699776274000,5,2992,2997,6,21896
1699777935000,4,2935,2939,6,21927
1699779559000,4,3019,3023,6,21953
1699781039000,4,3009,3013,6,21991
1699782587000,4,2936,2940,6,22087
1699784030000,4,2983,2987,6,22099
1699785574000,4,2974,2978,6,22127
1699787105000,4,2931,2935,6,22427
1699788630000,4,3037,3041,6,22612
1699790139000,4,2936,2940,6,22618
1699791617000,4,2951,2955,6,22623
1699793237000,4,2989,2993,6,22795
1699794882000,4,2930,2934,6,22808
1699796434000,4,2949,2953,6,22813
1699798075000,4,2960,2964,6,22884
1699799664000,4,2942,2946,6,22884
1699801833000,4,2933,2937,6,22965
1699803631000,4,2977,2981,6,22979
1699805759000,4,3000,3004,6,22986
1699807339000,5,3089,3094,6,22931
1699808874000,5,3151,3156,6,22946
1699810412000,4,3104,3108,6,23163
1699811875000,4,3094,3098,6,23165
1699813526000,12,3127,3139,6,23149
1699815074000,13,3138,3151,6,23219
1699816752000,22,3103,3125,7,23785
1699818266000,22,3127,3149,7,23792
1699819827000,18,3116,3134,7,24060
1699821411000,9,3119,3128,7,24126
1699822913000,7,3043,3050,7,24127
1699824432000,7,3132,3139,7,24133
1699825932000,7,3124,3131,7,24135
1699827811000,4,3124,3128,7,24178
1699829961000,6,3072,3078,7,24176
1699831597000,6,3081,3087,7,24178
1699833185000,6,3114,3120,7,24143
1699834895000,6,3107,3113,7,24175
1699837283000,12,3065,3077,7,24191
1699838999000,12,3175,3187,7,24248
1699840794000,19,3166,3185,7,24258
1699842607000,13,3078,3091,7,24333
1699844389000,6,3090,3096,7,24333
1699846151000,4,3091,3095,7,24338
1699847902000,4,3122,3126,7,24338
1699849684000,4,3101,3105,7,24338
1699851385000,4,3082,3086,7,24366
1699853159000,4,3102,3106,7,24368
1699854920000,4,3123,3127,7,24369
1699856977000,6,3126,3132,7,24193
1699858731000,6,3185,3191,7,24237
1699860551000,6,3087,3093,7,24257
1699862391000,3,3101,3104,7,24317
1699864334000,3,3152,3155,7,24348
1699866307000,3,3164,3167,7,24375
1699868278000,3,3104,3107,7,24418
1699870139000,4,3080,3084,7,24509
1699871931000,4,3165,3169,7,24548
1699873864000,3,3018,3021,7,24844
1699875705000,3,3039,3042,7,25030
1699877679000,5,3042,3047,7,25018
1699879581000,5,2984,2989,7,25195
1699881474000,5,2988,2993,7,25194
1699883272000,5,3027,3032,7,25297
1699885142000,5,3035,3040,7,25367
1699887001000,4,2996,3000,7,25423
1699888918000,4,3013,3017,7,25439
1699890721000,3,2984,2987,7,25439
1699892495000,3,3001,3004,7,25446
1699894428000,3,3044,3047,7,25450
1699896470000,9,2964,2973,7,25465
1699898909000,11,2989,3000,7,25683
1699900783000,9,2993,3002,7,25707
1699902720000,8,3033,3041,8,26306
1699904684000,5,3051,3056,8,26267
1699906617000,6,2988,2994,8,26511
1699908901000,6,2983,2989,8,26575
1699910945000,5,2993,2998,8,26582
1699913507000,6,2975,2981,8,26607
1699915356000,7,3081,3088,8,26612
1699917240000,10,2983,2993,8,26609
1699919002000,12,2972,2984,8,26611
1699920946000,11,3096,3107,8,26550
1699923177000,6,3073,3079,8,26587
1699925091000,6,3026,3032,8,26646
1699927110000,6,3023,3029,8,26657
1699929225000,6,3100,3106,8,26733
1699931714000,6,3001,3007,8,26733
1699933568000,6,2975,2981,8,26738
1699935436000,6,3020,3026,8,26738
1699937274000,3,3027,3030,8,26766
1699939213000,3,3072,3075,8,26768
1699941119000,3,3009,3012,8,26768
1699943158000,3,3057,3060,8,26795
1699945124000,4,3041,3045,8,26863
1699947080000,4,2966,2970,8,26883
1699949086000,3,2385,2388,8,26941
1699951164000,4,2870,2874,8,26972
1699953196000,4,2805,2809,8,27000
1699955194000,4,2106,2110,8,27048
1699957223000,3,2757,2760,8,27144
1699959163000,5,2792,2797,8,27394
1699961199000,11,2728,2739,8,27655
1699963098000,16,2285,2301,8,27662
1699965242000,11,2859,2870,8,27640
1699967271000,4,2739,2743,8,27747
1699969431000,12,2462,2474,8,27853
1699971638000,18,2799,2817,8,27924
1699974681000,31,2764,2795,8,27976
1699976836000,72,2102,2174,8,27956
1699979028000,59,2624,2683,8,27843
1699981169000,21,2614,2635,8,27725
1699983888000,49,2469,2518,8,27929
1699986091000,102,2150,2252,8,27924
1699988162000,95,1998,2093,9,28458
1699990174000,114,1989,2103,9,28487
1699992161000,64,2306,2370,9,28647
1699994151000,19,2231,2250,9,28637
1699996647000,15,2366,2381,9,28615
1699998480000,13,2620,2633,9,28559
1700000358000,8,2559,2567,9,28588
1700002197000,17,2374,2391,9,28598
1700004044000,38,2234,2272,9,28590
1700005820000,51,1880,1931,9,28591
1700007835000,54,2515,2569,9,28557
1700009725000,40,2266,2306,9,28444
1700011554000,64,2360,2424,9,28436
1700013297000,61,2442,2503,9,28371
1700015078000,73,2693,2766,9,28442
1700017776000,36,2664,2700,9,28079
1700019435000,45,2609,2654,9,28084
1700021282000,115,2493,2608,9,28084
1700023091000,82,2603,2685,9,27826
1700025021000,27,2575,2602,9,26958
1700026934000,48,2640,2688,9,26918
1700028798000,97,2582,2679,9,26930
1700031065000,151,2510,2661,9,26608
1700033149000,140,2573,2713,9,26421
1700035132000,31,2544,2575,9,25488
1700037027000,35,2528,2563,9,25509
1700038939000,23,1686,1709,9,25451
1700040921000,10,2473,2483,9,25389
1700042779000,10,2056,2066,9,25479
1700044561000,7,2582,2589,9,25497
1700046535000,7,2585,2592,9,25714
1700048261000,7,2267,2274,9,25894
1700050049000,9,2451,2460,9,25910
1700051914000,10,2238,2248,9,25901
1700053677000,10,2537,2547,9,26018
1700055470000,9,2134,2143,9,26016
1700057252000,20,2383,2403,9,26076
1700058959000,25,1928,1953,9,26079
1700060769000,41,2546,2587,9,26145
1700062495000,56,2414,2470,9,26152
1700064270000,38,2311,2349,9,25914
1700066034000,10,2061,2071,9,25266
1700067744000,13,2435,2448,9,25282
1700069527000,16,2040,2056,9,25276
1700071462000,19,2446,2465,9,25436
1700073164000,34,2435,2469,9,25454
1700074977000,39,2311,2350,10,25806
1700076593000,45,2361,2406,10,25811
1700078315000,35,2424,2459,10,25959
1700080047000,20,2335,2355,10,25968
1700081776000,21,2308,2329,10,25983
1700083774000,13,2355,2368,10,25953
1700085426000,13,2413,2426,10,25992
1700087025000,9,2307,2316,10,25951
1700088619000,7,2394,2401,10,25944
1700090166000,6,2284,2290,10,25928
1700091625000,7,2403,2410,10,25929
1700093281000,8,2400,2408,10,25951
1700095092000,7,2404,2411,10,25963
1700097001000,8,2405,2413,10,25990
1700099236000,8,2404,2412,10,25994
1700100980000,7,2403,2410,10,26032